Location: Banios
(43.0451°N, 0.2335°E)
Time: 11:34:45
(UTC+00:00)

Transit 2A Rocket - All Passes

Search period start: 13 May 2021 00:00
Search period end: 23 May 2021 00:00
Orbit: 594 x 909 km, 66.7° (Epoch: 13 May)

Date Brightness Start Highest point End Pass type
(mag) Time Alt. Az. Time Alt. Az. Time Alt. Az.
13 May - 08:08:34 10° SE 08:10:12 12° ESE 08:11:49 10° E daylight
13 May - 09:47:47 10° SW 09:52:08 68° WNW 09:56:27 10° NNE daylight
13 May - 11:34:37 10° NW 11:35:32 11° NW 11:36:26 10° NNW daylight
13 May - 16:47:48 10° N 16:50:55 17° NE 16:54:10 10° E daylight
13 May - 18:29:12 10° NW 18:33:54 76° WSW 18:39:02 10° SSE daylight
14 May - 09:05:12 10° SSW 09:09:33 64° ESE 09:13:49 10° NE daylight
14 May - 10:49:42 10° W 10:52:29 17° NW 10:55:18 10° N daylight
14 May - 16:06:22 10° NNE 16:07:53 11° NE 16:09:26 10° ENE daylight
14 May - 17:46:38 10° NNW 17:51:17 63° ENE 17:56:21 10° SE daylight
14 May - 19:30:21 10° WNW 19:33:26 17° WSW 19:36:41 10° SSW daylight
15 May - 08:23:06 10° S 08:27:03 33° ESE 08:30:56 10° NE daylight
15 May - 10:05:54 10° WSW 10:09:35 26° NW 10:13:16 10° N daylight
15 May - 17:04:13 10° NNW 17:08:35 37° NE 17:13:15 10° ESE daylight
15 May - 18:46:52 10° NW 18:51:01 30° WSW 18:55:29 10° S daylight
16 May - 07:41:40 10° SSE 07:44:39 18° ESE 07:47:35 10° ENE daylight
16 May - 09:22:37 10° SW 09:26:49 45° NW 09:30:58 10° NNE daylight
16 May - 16:22:00 10° N 16:25:45 23° NE 16:29:43 10° E daylight
16 May - 18:03:54 10° NW 18:08:32 52° WSW 18:13:33 10° SSE daylight
17 May - 08:39:46 10° SSW 08:44:09 84° WNW 08:48:29 10° NNE daylight
17 May - 10:25:32 10° WNW 10:27:23 12° NW 10:29:15 10° NNW daylight
17 May - 15:40:05 10° N 15:42:49 15° NE 15:45:39 10° ENE daylight
17 May - 17:21:11 10° NNW 17:25:56 89° NE 17:31:08 10° SSE daylight
17 May - 19:06:18 10° W 19:07:54 11° WSW 19:09:34 10° SW daylight
18 May - 07:57:21 10° SSW 08:01:36 50° ESE 08:05:46 10° NE daylight
18 May - 09:41:13 10° W 09:44:23 19° NW 09:47:34 10° N daylight
18 May - 16:38:40 10° NNW 16:43:17 52° NE 16:48:18 10° SE daylight
18 May - 18:21:56 10° WNW 18:25:33 21° WSW 18:29:23 10° SSW daylight
19 May - 07:15:28 10° S 07:19:08 27° ESE 07:22:46 10° NE daylight
19 May - 08:57:38 10° WSW 09:01:31 32° NW 09:05:25 10° NNE daylight
19 May - 15:56:20 10° NNW 16:00:32 31° NE 16:05:04 10° ESE daylight
19 May - 17:38:42 10° NW 17:43:07 36° WSW 17:47:52 10° S daylight
20 May - 06:34:25 10° SE 06:36:46 14° ESE 06:39:05 10° ENE daylight
20 May - 08:14:30 10° SW 08:18:47 56° NW 08:23:03 10° NNE daylight
20 May - 15:14:11 10° N 15:17:41 20° NE 15:21:22 10° E daylight
20 May - 16:55:50 10° NW 17:00:34 65° WSW 17:05:45 10° SSE daylight
21 May - 07:31:49 10° SSW 07:36:10 78° ESE 07:40:29 10° NNE daylight
21 May - 09:16:49 10° WNW 09:19:15 15° NW 09:21:42 10° N daylight
21 May - 14:32:25 10° N 14:34:41 13° NE 14:37:01 10° ENE daylight
21 May - 16:13:12 10° NNW 16:17:59 74° ENE 16:23:11 10° SE daylight
21 May - 17:57:22 10° WNW 18:00:03 15° WSW 18:02:50 10° SW daylight
22 May - 06:49:34 10° S 06:53:39 40° ESE 06:57:41 10° NE daylight
22 May - 08:32:50 10° W 08:36:18 23° NW 08:39:47 10° N daylight
22 May - 15:30:45 10° NNW 15:35:17 43° NE 15:40:12 10° SE daylight
22 May - 17:13:38 10° NW 17:17:39 26° WSW 17:21:57 10° SSW daylight
